Zurück zum Katalog

COSMOS 1275 DEB

AktivPO
NORAD 39948·DEBRIS·🇷🇺 Russia

Gestartet Jun 4, 1981 von Plesetsk Cosmodrome

Loading…

Nächste Überflüge (nächste 24 Stunden)

TLE

AktuellSource: Space-Track

Epoche: Sep 13, 2026, 05:58 UTC

1 39948U 81053NJ  26256.24875602  .00000746  00000-0  90561-3 0  9996
2 39948  83.0619 224.8770 0189853 156.7528 204.2350 13.57617398606132

Verfolge COSMOS 1275 DEB in Echtzeit mit AllMySat

Download on the App Store